Date,TemperatureHighF,TemperatureAvgF,TemperatureLowF,DewpointHighF,DewpointAvgF,DewpointLowF,HumidityHigh,HumidityAvg,HumidityLow,PressureMaxIn,PressureMinIn,WindSpeedMaxMPH,WindSpeedAvgMPH,GustSpeedMaxMPH,PrecipitationSumIn
2013-1-1,24.0,8.4,-2.0,17.0,5.0,-4.0,92,86,65,30.08,29.88,4,2,5,0.04
2013-1-2,23.0,8.0,-3.0,11.0,3.2,-6.0,92,81,57,30.09,29.98,5,2,6,0.01
2013-1-3,25.0,4.7,-7.0,7.0,-1.3,-9.0,91,77,42,30.19,30.03,5,3,7,0.00
2013-1-4,22.0,6.7,-6.0,6.0,-1.0,-11.0,87,72,48,30.14,30.01,6,3,6,0.00
2013-1-5,24.0,8.3,-4.0,10.0,1.4,-8.0,89,74,49,30.20,30.01,5,3,6,0.00
2013-1-6,21.0,10.4,-1.0,11.0,3.9,-5.0,87,75,57,30.11,29.91,6,2,6,0.00
2013-1-7,29.0,13.1,4.0,14.0,5.8,-1.0,86,73,48,29.98,29.87,6,3,7,0.00
2013-1-8,32.0,16.3,4.0,15.0,7.1,-1.0,85,68,42,30.16,29.87,6,2,6,0.00
2013-1-9,42.0,19.7,6.0,20.0,11.8,4.0,92,73,36,30.23,29.93,5,2,6,0.00
2013-1-10,46.0,28.6,12.0,26.0,17.1,7.0,82,63,37,29.93,29.54,25,4,33,0.00
2013-1-11,38.0,22.1,6.0,30.0,11.2,0.0,95,63,42,29.70,29.41,29,10,36,0.00
2013-1-12,24.0,6.8,-6.0,7.0,-0.5,-10.0,85,72,40,29.78,29.64,5,2,6,0.00
2013-1-13,14.0,7.2,-1.0,10.0,2.1,-5.0,92,79,56,29.82,29.71,6,2,9,0.00
2013-1-14,15.0,2.7,-10.0,3.0,-2.1,-14.0,91,80,58,29.92,29.81,6,2,6,0.03
2013-1-15,16.0,0.0,-15.0,1.0,-7.2,-18.0,87,72,49,30.13,29.89,6,2,8,0.01
2013-1-16,25.0,9.4,-4.0,8.0,0.7,-7.0,87,69,44,30.23,30.10,6,2,6,0.00
2013-1-17,35.0,16.5,4.0,15.0,8.3,0.0,91,72,44,30.29,30.15,5,2,6,0.00
2013-1-18,39.0,19.1,7.0,20.0,11.5,4.0,91,74,43,30.23,30.10,6,2,6,0.00
2013-1-19,40.0,19.1,6.0,20.0,11.0,2.0,93,72,43,30.26,30.09,6,2,7,0.00
2013-1-20,37.0,18.9,4.0,16.0,9.1,-1.0,89,67,40,30.19,30.07,6,3,6,0.00
2013-1-21,41.0,20.9,7.0,20.0,9.5,1.0,79,63,36,30.19,30.06,6,3,6,0.00
2013-1-22,43.0,22.0,7.0,19.0,9.6,0.0,79,60,35,30.22,30.08,6,3,7,0.00
2013-1-23,38.0,22.2,9.0,16.0,9.3,0.0,77,59,33,30.22,30.11,6,3,7,0.00
2013-1-24,37.0,29.9,20.0,27.0,20.8,12.0,85,69,52,30.16,30.09,5,2,6,0.00
2013-1-25,40.0,32.8,28.0,34.0,30.4,26.0,95,91,76,30.16,30.06,6,1,7,0.03
2013-1-26,37.0,33.1,28.0,36.0,31.8,27.0,95,95,94,30.06,29.75,3,1,5,0.46
2013-1-27,49.0,37.1,32.0,40.0,32.4,27.0,96,84,44,29.84,29.69,14,2,21,0.10
2013-1-28,39.0,32.3,23.0,33.0,28.2,20.0,95,85,57,29.72,29.63,13,4,19,0.15
2013-1-29,27.0,20.4,16.0,20.0,14.1,10.0,93,77,50,29.83,29.62,8,3,10,0.01
2013-1-30,30.0,21.3,12.0,22.0,15.2,8.0,90,77,58,29.98,29.83,5,2,7,0.00
2013-1-31,43.0,32.4,22.0,26.0,21.7,18.0,93,67,40,30.16,30.01,5,2,8,0.00
2013-2-1,46.0,29.1,18.0,29.0,21.3,15.0,93,75,46,30.15,30.02,4,2,6,0.00
2013-2-2,43.0,29.1,17.0,27.0,21.2,14.0,92,74,47,30.31,30.13,4,2,6,0.00
2013-2-3,37.0,28.6,20.0,29.0,23.3,17.0,94,81,57,30.13,29.96,4,2,5,0.00
2013-2-4,44.0,32.7,23.0,29.0,26.3,21.0,94,79,49,30.06,29.96,6,2,9,0.00
2013-2-5,48.0,29.1,19.0,24.0,19.1,14.0,88,70,36,30.02,29.95,5,2,8,0.00
2013-2-13,42.0,28.6,18.0,18.0,16.2,14.0,89,62,35,30.09,29.96,5,2,7,0.00
2013-2-14,43.0,30.0,19.0,23.0,17.2,13.0,88,61,34,30.10,29.94,7,3,11,0.00
2013-2-15,42.0,27.9,15.0,20.0,14.0,11.0,91,60,31,30.25,30.05,9,3,13,0.00
2013-2-16,49.0,30.1,15.0,17.0,13.4,9.0,82,54,23,30.25,29.96,6,3,7,0.00
2013-2-17,56.0,34.4,19.0,20.0,14.0,10.0,75,47,16,29.95,29.67,17,5,26,0.00
2013-2-18,40.0,29.0,18.0,19.0,10.3,6.0,69,47,25,30.00,29.74,14,4,19,0.00
2013-2-19,46.0,28.2,10.0,14.0,7.1,3.0,79,46,18,29.88,29.56,16,5,21,0.00
2013-2-20,42.0,31.2,23.0,30.0,19.7,11.0,95,66,32,29.57,29.49,13,4,16,0.00
2013-2-21,41.0,30.6,24.0,29.0,25.2,22.0,94,81,53,29.72,29.51,8,3,14,0.13
2013-2-22,32.0,24.6,13.0,26.0,19.8,7.0,94,82,50,29.85,29.72,12,4,18,0.05
2013-2-23,36.0,22.0,9.0,26.0,14.2,5.0,94,73,47,29.84,29.59,10,4,14,0.01
2013-2-24,31.0,21.5,10.0,22.0,15.9,5.0,93,80,53,29.85,29.63,9,3,13,0.02
2013-2-25,37.0,24.4,15.0,21.0,15.0,11.0,88,69,42,29.98,29.75,6,2,7,0.01
2013-2-26,33.0,25.5,16.0,22.0,17.7,11.0,93,73,53,29.96,29.70,19,8,26,0.02
2013-2-27,37.0,22.7,11.0,16.0,11.5,5.0,92,65,28,30.14,29.94,6,2,9,0.01
2013-2-28,40.0,24.6,9.0,18.0,10.2,4.0,83,57,29,30.22,30.06,6,2,11,0.00
2013-3-1,48.0,33.8,26.0,24.0,20.1,14.0,80,59,35,30.34,30.18,6,2,9,0.00
2013-3-2,56.0,36.8,19.0,26.0,22.3,16.0,90,60,29,30.34,30.03,5,2,7,0.00
2013-3-3,55.0,41.1,29.0,33.0,26.7,23.0,81,59,31,30.03,29.80,10,3,14,0.00
2013-3-4,53.0,37.4,22.0,39.0,28.1,14.0,95,72,33,30.03,29.74,21,4,28,0.12
2013-3-5,52.0,31.3,14.0,21.0,15.5,11.0,89,58,21,30.18,29.96,5,2,7,0.01
2013-3-6,63.0,43.4,22.0,25.0,18.9,15.0,82,43,18,30.02,29.88,15,6,21,0.00
2013-3-7,63.0,49.3,34.0,23.0,17.5,10.0,56,31,12,30.00,29.84,19,6,26,0.00
2013-3-8,53.0,41.8,31.0,37.0,25.9,15.0,95,57,24,29.89,29.61,18,5,23,0.18
2013-3-9,36.0,32.5,28.0,32.0,28.2,21.0,95,84,58,29.89,29.57,10,3,12,0.20
2013-3-10,45.0,32.3,19.0,23.0,18.9,16.0,88,61,34,30.12,29.89,10,3,14,0.01
2013-3-11,50.0,34.9,20.0,26.0,21.2,17.0,90,61,32,30.11,29.98,5,2,7,0.00
2013-3-12,57.0,42.9,31.0,29.0,26.5,24.0,84,55,30,30.22,30.00,7,3,11,0.00
2013-3-13,63.0,47.9,32.0,31.0,25.2,18.0,80,46,20,30.34,30.14,6,2,10,0.00
2013-3-14,68.0,47.6,27.0,27.0,23.3,19.0,81,44,17,30.37,30.14,6,3,8,0.00
2013-3-15,68.0,50.3,32.0,30.0,26.0,23.0,70,42,19,30.16,29.94,5,2,7,0.00
2013-3-16,55.0,44.9,34.0,42.0,33.7,26.0,93,66,45,29.97,29.78,14,5,21,0.04
2013-3-17,59.0,42.7,28.0,35.0,22.4,8.0,95,54,17,29.82,29.66,24,7,34,0.01
2013-3-18,54.0,40.4,25.0,17.0,11.6,8.0,58,33,16,30.00,29.78,17,5,26,0.00
2013-3-19,55.0,41.0,27.0,22.0,12.9,2.0,63,35,13,30.11,29.90,8,4,13,0.00
2013-3-20,55.0,38.2,22.0,32.0,18.1,8.0,66,46,27,30.03,29.81,14,3,18,0.00
2013-3-21,55.0,42.9,29.0,38.0,24.2,3.0,93,53,16,29.81,29.69,24,6,31,0.04
2013-3-22,57.0,37.1,22.0,17.0,10.5,1.0,72,37,11,29.76,29.63,19,7,29,0.04
2013-3-23,35.0,28.2,18.0,12.0,5.8,-1.0,58,38,30,29.90,29.71,16,8,24,0.00
2013-3-24,39.0,21.1,9.0,8.0,4.9,2.0,74,52,26,29.96,29.85,8,3,14,0.00
2013-3-25,45.0,27.4,8.0,8.0,3.7,-3.0,73,41,14,30.08,29.91,9,3,12,0.00
2013-3-26,63.0,41.4,23.0,20.0,12.6,6.0,58,33,16,30.00,29.88,20,4,29,0.00
2013-3-27,65.0,48.5,31.0,22.0,16.7,13.0,55,31,14,30.06,29.84,10,4,16,0.00
2013-3-28,68.0,52.8,37.0,26.0,19.1,14.0,45,28,15,30.12,29.94,13,4,16,0.00
2013-3-29,68.0,54.4,42.0,28.0,22.9,16.0,42,30,18,30.20,30.03,12,4,17,0.00
2013-3-30,67.0,51.7,35.0,31.0,25.7,-99.9,65,41,20,30.20,30.06,11,4,17,0.00
2013-3-31,68.0,50.2,29.0,32.0,25.8,21.0,78,44,19,30.15,29.94,11,3,13,0.00
2013-4-1,68.0,53.8,40.0,42.0,27.8,11.0,83,42,14,30.02,29.88,22,6,28,0.05
2013-4-2,58.0,44.4,32.0,36.0,29.6,23.0,87,58,34,29.95,29.81,14,5,21,0.02
2013-4-3,65.0,46.6,31.0,36.0,29.3,20.0,95,58,21,30.14,29.91,8,3,11,0.27
2013-4-4,71.0,52.2,29.0,28.0,22.0,17.0,68,36,14,30.22,30.03,9,3,16,0.27
2013-4-5,69.0,55.5,45.0,31.0,25.1,20.0,45,32,19,30.03,29.92,35,5,48,0.00
2013-4-6,65.0,51.6,35.0,34.0,26.7,19.0,69,42,20,30.05,29.89,9,3,13,0.00
2013-4-7,69.0,52.9,35.0,37.0,27.7,15.0,87,44,14,29.95,29.71,19,4,31,0.00
2013-4-8,65.0,49.4,41.0,42.0,27.6,15.0,96,48,20,29.71,29.45,26,7,31,0.15
2013-4-9,42.0,31.1,18.0,36.0,28.0,16.0,95,88,67,29.82,29.43,12,5,16,0.12
2013-4-10,42.0,26.1,15.0,27.0,19.2,12.0,93,77,47,30.00,29.82,6,2,9,0.13
2013-4-11,52.0,36.9,26.0,34.0,28.2,23.0,94,73,47,29.91,29.80,7,2,9,0.13
2013-4-12,61.0,45.1,32.0,37.0,30.3,23.0,95,63,24,29.98,29.79,13,3,17,0.00
2013-4-13,66.0,51.4,30.0,36.0,23.9,17.0,72,39,17,29.85,29.56,24,9,38,0.00
2013-4-14,53.0,44.0,37.0,42.0,28.3,16.0,96,58,25,29.80,29.59,12,5,19,0.24
2013-4-15,57.0,42.8,33.0,38.0,33.3,28.0,95,72,36,29.69,29.51,24,7,30,0.07
2013-4-16,67.0,47.6,30.0,34.0,28.5,21.0,95,56,18,29.72,29.51,30,13,44,0.01
2013-4-17,33.0,28.1,24.0,29.0,23.6,13.0,94,84,60,29.89,29.62,15,6,23,0.09
2013-4-18,39.0,27.8,15.0,20.0,15.4,11.0,90,62,33,30.11,29.88,15,4,21,0.01
2013-4-19,52.0,36.4,18.0,28.0,18.7,12.0,90,53,30,30.15,29.98,7,2,10,0.00
2013-4-20,56.0,43.8,31.0,37.0,32.5,28.0,95,67,39,30.00,29.87,12,4,16,0.00
2013-4-21,62.0,46.7,30.0,38.0,30.4,24.0,95,59,24,30.15,29.96,8,3,12,0.00
2013-4-22,70.0,56.5,44.0,32.0,25.7,18.0,57,33,15,30.01,29.84,18,7,24,0.00
2013-4-23,49.0,41.1,31.0,34.0,19.7,6.0,95,48,19,30.03,29.87,16,9,24,0.01
2013-4-24,58.0,42.0,28.0,21.0,15.9,11.0,64,38,18,30.14,29.93,6,2,11,0.01
2013-4-25,66.0,48.4,30.0,27.0,20.1,15.0,65,36,16,30.07,29.94,10,4,13,0.00
2013-4-26,68.0,52.5,35.0,28.0,19.9,14.0,53,31,13,30.21,29.94,12,4,14,0.00
2013-4-27,70.0,53.3,32.0,25.0,20.2,15.0,62,31,13,30.29,30.08,8,3,12,0.00
2013-4-28,73.0,56.2,35.0,29.0,23.6,18.0,54,31,15,30.16,29.95,9,3,13,0.00
2013-4-29,78.0,61.1,40.0,31.0,25.9,18.0,57,29,12,30.03,29.80,10,3,19,0.00
2013-4-30,80.0,66.4,52.0,33.0,23.6,17.0,38,21,11,29.88,29.72,24,9,36,0.00
2013-5-1,56.0,46.0,36.0,41.0,26.3,10.0,96,52,16,30.20,29.81,23,8,32,0.07
2013-5-2,56.0,42.3,24.0,20.0,14.4,9.0,69,35,16,30.43,30.20,11,3,14,0.02
2013-5-3,66.0,47.6,25.0,24.0,15.8,10.0,64,32,12,30.22,29.91,9,3,12,0.00
2013-5-4,71.0,55.0,33.0,29.0,19.7,15.0,53,28,12,30.01,29.83,11,3,16,0.00
2013-5-5,70.0,60.0,46.0,30.0,25.9,21.0,48,28,17,30.05,29.88,19,6,29,0.00
2013-5-6,64.0,53.7,40.0,45.0,36.5,28.0,96,56,31,30.00,29.94,15,4,21,0.01
2013-5-7,55.0,46.2,36.0,47.0,41.1,35.0,96,84,54,30.02,29.90,16,3,22,0.06
2013-5-8,55.0,45.5,37.0,43.0,39.6,36.0,96,81,52,30.05,29.88,9,4,12,0.07
2013-5-9,64.0,50.3,41.0,46.0,40.9,33.0,96,74,38,30.10,29.98,15,2,21,0.25
2013-5-10,67.0,51.2,36.0,41.0,34.5,-99.9,94,60,28,30.22,30.03,12,4,20,0.05
2013-5-11,73.0,56.0,36.0,39.0,30.4,-99.9,85,45,15,30.36,30.16,10,3,14,0.00
2013-5-12,76.0,61.5,45.0,41.0,34.6,30.0,70,40,19,30.34,30.18,8,3,12,0.00
2013-5-13,81.0,64.5,46.0,41.0,35.6,31.0,64,38,16,30.33,30.11,12,3,16,0.00
2013-5-14,82.0,65.2,46.0,43.0,36.8,30.0,66,38,17,30.18,30.03,17,4,26,0.00
2013-5-15,79.0,64.4,52.0,46.0,40.4,36.0,66,43,24,30.10,29.92,15,4,19,0.00
2013-5-16,82.0,60.8,43.0,42.0,18.9,-99.9,67,34,14,30.06,29.88,16,4,24,0.00
2013-5-17,80.0,68.2,56.0,29.0,19.0,-99.9,35,18,10,30.05,29.89,22,10,28,0.00
2013-5-18,72.0,59.6,47.0,36.0,30.2,22.0,58,34,19,30.02,29.90,24,6,37,0.00
2013-5-19,63.0,51.4,41.0,39.0,34.1,30.0,78,54,30,29.98,29.87,12,4,17,0.00
2013-5-20,64.0,50.4,35.0,39.0,35.4,31.0,89,60,32,30.03,29.85,16,4,21,0.00
2013-5-21,70.0,56.3,38.0,41.0,35.5,31.0,84,49,26,30.10,29.90,10,3,14,0.00
2013-5-22,81.0,64.7,44.0,38.0,28.5,21.0,61,30,11,29.98,29.84,17,6,24,0.00
2013-5-23,83.0,71.7,55.0,34.0,22.0,16.0,32,17,9,30.02,29.87,26,11,38,0.00
2013-5-24,82.0,69.6,54.0,27.0,21.1,17.0,31,17,10,30.13,29.91,21,8,28,0.00
2013-5-25,84.0,67.0,48.0,34.0,23.3,18.0,35,21,10,30.12,29.96,18,6,22,0.00
2013-5-26,82.0,67.8,54.0,35.0,22.2,16.0,34,19,9,30.08,29.94,17,6,25,0.00
2013-5-27,80.0,66.5,50.0,35.0,21.4,14.0,33,19,11,30.03,29.85,11,5,18,0.00
2013-5-28,80.0,64.5,48.0,39.0,25.9,20.0,55,25,12,29.87,29.76,18,8,29,0.00
2013-5-29,70.0,55.8,42.0,45.0,36.2,23.0,96,54,18,29.85,29.72,13,4,22,0.00
2013-5-30,74.0,59.7,45.0,35.0,27.7,21.0,58,32,15,29.96,29.79,15,4,23,0.00
2013-5-31,70.0,58.7,46.0,31.0,23.2,9.0,50,27,13,30.08,29.90,15,5,23,0.00
2013-6-1,72.0,56.7,37.0,35.0,24.3,15.0,47,30,18,30.24,30.03,8,2,14,0.00
2013-6-2,85.0,70.8,48.0,37.0,27.0,21.0,40,21,11,30.13,29.91,11,4,21,0.00
2013-6-3,84.0,69.3,52.0,41.0,30.8,24.0,43,26,13,30.06,29.85,23,6,29,0.00
2013-6-4,85.0,68.7,48.0,46.0,34.1,27.0,53,30,14,30.11,29.95,15,3,19,0.00
2013-6-5,80.0,67.7,49.0,41.0,32.2,24.0,56,29,15,30.15,29.98,9,3,16,0.00
2013-6-6,82.0,65.9,44.0,39.0,32.5,27.0,58,31,15,30.16,29.98,8,3,13,0.00
2013-6-7,83.0,67.1,48.0,42.0,34.2,30.0,57,32,16,30.14,29.94,11,3,17,0.00
2013-6-8,86.0,70.7,53.0,47.0,36.3,30.0,54,31,15,30.08,29.90,12,3,18,0.00
2013-6-9,88.0,71.7,52.0,45.0,36.1,30.0,50,30,14,30.21,30.00,7,2,11,0.00
2013-6-10,95.0,75.1,53.0,47.0,33.2,25.0,52,25,9,30.15,29.97,14,5,26,0.00
2013-6-11,88.0,75.2,60.0,29.0,25.1,20.0,27,16,10,30.14,29.98,21,7,33,0.00
2013-6-12,91.0,72.6,52.0,42.0,28.5,19.0,44,22,8,30.22,30.03,14,4,21,0.00
2013-6-13,89.0,74.8,57.0,45.0,32.7,25.0,43,24,11,30.19,30.03,17,6,25,0.00
2013-6-14,89.0,74.2,56.0,43.0,29.0,14.0,44,23,7,30.15,29.98,14,4,24,0.00
2013-6-15,86.0,68.3,47.0,37.0,27.4,15.0,40,23,13,30.16,29.94,22,4,28,0.00
2013-6-16,84.0,68.7,54.0,47.0,38.5,34.0,50,34,20,30.22,30.06,10,4,14,0.00
2013-6-17,87.0,68.4,50.0,49.0,35.6,30.0,50,32,14,30.19,30.01,9,3,15,0.00
2013-6-18,88.0,70.1,47.0,44.0,29.1,16.0,45,25,8,30.13,29.93,18,5,30,0.00
2013-6-19,88.0,72.7,55.0,34.0,20.5,14.0,29,15,7,30.02,29.85,20,7,31,0.00
2013-6-20,86.0,70.7,56.0,36.0,24.1,15.0,32,18,10,30.06,29.89,18,5,26,0.00
2013-6-22,86.0,80.4,60.0,36.0,25.7,22.0,26,14,10,30.09,29.95,12,7,21,0.00
2013-6-23,88.0,67.8,49.0,34.0,25.3,19.0,44,22,10,30.08,29.90,14,4,21,0.00
2013-6-24,84.0,72.7,62.0,32.0,23.1,18.0,24,16,10,30.05,29.87,18,8,27,0.00
2013-6-25,87.0,74.3,61.0,34.0,29.2,22.0,29,19,14,30.16,29.97,11,5,16,0.00
2013-6-26,90.0,72.3,51.0,46.0,36.9,32.0,55,30,15,30.27,30.05,9,3,14,0.00
2013-6-27,94.0,74.6,53.0,45.0,38.0,33.0,57,29,13,30.37,30.14,8,3,12,0.00
2013-6-28,94.0,74.3,56.0,51.0,40.0,35.0,52,31,13,30.36,30.18,11,3,15,0.00
2013-6-29,82.0,69.8,62.0,50.0,42.4,38.0,49,38,21,30.25,30.16,11,2,17,0.00
2013-6-30,90.0,75.1,56.0,51.0,44.2,40.0,60,35,18,30.26,30.11,12,3,22,0.00
2013-7-1,91.0,75.4,56.0,50.0,41.8,34.0,58,33,15,30.31,30.15,9,3,16,0.00
2013-7-2,89.0,73.0,57.0,47.0,40.4,35.0,58,33,19,30.28,30.10,10,3,16,0.00
2013-7-3,90.0,63.5,54.0,46.0,22.9,-99.9,61,30,16,30.22,30.03,10,2,12,0.00
2013-7-4,89.0,34.6,67.0,52.0,-37.5,-99.9,52,13,17,30.16,30.00,8,1,8,0.00
2013-7-5,88.0,35.7,65.0,53.0,-32.2,-99.9,55,16,23,30.11,29.96,7,1,9,0.00
2013-7-6,87.0,73.4,65.0,55.0,46.7,-99.9,62,41,24,30.16,30.00,10,2,18,0.01
2013-7-7,88.0,76.3,62.0,53.0,47.5,43.0,69,39,21,30.24,30.08,8,3,19,0.01
2013-7-8,87.0,72.1,56.0,57.0,49.7,39.0,83,49,22,30.29,30.12,9,3,12,0.00
2013-7-9,91.0,74.2,61.0,51.0,42.3,34.0,53,34,14,30.36,30.16,7,2,10,0.00
2013-7-10,92.0,74.9,60.0,51.0,39.2,-99.9,54,30,17,30.29,30.10,9,3,13,0.00
2013-7-11,88.0,71.3,61.0,63.0,50.0,34.0,97,52,25,30.22,30.07,8,4,10,0.35
2013-7-12,88.0,69.4,58.0,62.0,58.1,54.0,98,71,31,30.20,30.06,9,3,14,0.05
2013-7-13,83.0,71.6,58.0,61.0,57.8,53.0,98,65,36,30.26,30.13,8,3,11,0.00
2013-7-14,86.0,59.8,61.0,60.0,25.1,-99.9,90,44,27,30.27,30.13,10,3,17,0.00
2013-7-15,87.0,57.3,65.0,59.0,15.8,-99.9,75,36,26,30.22,30.09,11,4,18,0.02
2013-7-16,86.0,71.0,57.0,60.0,55.7,48.0,95,63,28,30.24,30.09,20,3,26,0.66
2013-7-17,85.0,72.2,61.0,63.0,57.6,50.0,98,64,33,30.34,30.16,13,2,26,0.66
2013-7-18,85.0,68.9,59.0,62.0,58.0,51.0,98,73,33,30.31,30.14,13,3,18,0.56
2013-7-19,86.0,70.5,59.0,61.0,56.4,50.0,96,64,30,30.27,30.13,11,3,11,0.39
2013-7-20,89.0,71.9,57.0,59.0,48.6,-99.9,91,51,18,30.21,30.01,7,2,11,0.00
2013-7-21,91.0,72.4,60.0,56.0,46.6,36.0,67,43,15,30.16,29.98,7,2,9,0.00
2013-7-22,92.0,75.7,61.0,53.0,44.9,28.0,66,37,11,30.24,30.06,8,2,11,0.00
2013-7-23,91.0,74.0,58.0,53.0,43.5,35.0,65,36,14,30.24,30.06,9,3,15,0.00
2013-7-24,82.0,71.1,64.0,55.0,47.7,39.0,68,44,27,30.26,30.12,11,3,17,0.00
2013-7-25,87.0,69.9,60.0,55.0,50.5,46.0,78,53,25,30.26,30.10,5,2,8,0.00
2013-7-26,88.0,72.0,56.0,53.0,46.9,37.0,75,45,17,30.33,30.14,8,2,11,0.00
2013-7-27,84.0,72.0,59.0,61.0,50.4,41.0,97,49,30,30.26,30.07,10,4,14,0.12
2013-7-28,73.0,63.3,59.0,64.0,59.5,55.0,98,89,54,30.10,30.02,6,2,11,0.22
2013-7-29,80.0,64.9,56.0,60.0,56.8,53.0,98,78,41,30.22,30.05,8,2,12,0.56
2013-7-30,84.0,68.7,53.0,59.0,52.4,43.0,97,63,25,30.37,30.20,7,2,10,0.44
2013-7-31,88.0,69.6,52.0,56.0,48.1,39.0,90,52,19,30.38,30.18,6,2,9,0.01
2013-8-1,72.0,63.6,59.0,61.0,55.8,44.0,98,77,42,30.28,30.12,6,2,9,0.15
2013-8-2,77.0,69.7,60.0,59.0,57.9,55.0,95,68,51,30.25,30.16,5,3,10,0.22
2013-8-17,89.0,68.8,52.0,50.0,39.7,-99.9,64,39,17,30.29,30.12,8,2,14,0.00
2013-8-18,84.0,70.1,56.0,51.0,47.8,45.0,72,47,29,30.31,30.14,9,3,14,0.00
2013-8-19,90.0,62.8,54.0,55.0,28.7,-99.9,76,45,19,30.29,30.14,14,4,20,0.00
2013-8-20,85.0,67.9,57.0,56.0,46.1,-99.9,76,51,29,30.25,30.11,14,3,21,0.00
2013-8-21,85.0,67.1,52.0,54.0,49.7,45.0,91,58,27,30.28,30.10,12,2,14,0.00
2013-8-22,82.0,70.2,60.0,58.0,52.6,48.0,86,56,33,30.29,30.12,8,2,11,0.00
2013-8-23,82.0,64.8,53.0,56.0,51.9,49.0,90,66,33,30.21,30.06,11,2,14,0.00
2013-10-2,76.0,57.9,40.0,37.0,29.1,23.0,64,36,17,30.07,29.90,11,4,17,0.00
2013-10-3,72.0,61.7,37.0,36.0,30.4,23.0,95,33,23,29.92,29.75,19,7,27,0.04
2013-10-4,47.0,36.8,29.0,34.0,30.1,26.0,95,78,46,30.11,29.85,11,3,16,0.16
2013-10-5,51.0,37.7,28.0,31.0,26.0,-99.9,95,70,40,30.27,30.11,7,2,10,0.01
2013-10-6,60.0,42.0,26.0,32.0,28.5,24.0,94,64,25,30.31,30.13,6,2,7,0.00
2013-10-7,69.0,47.2,32.0,38.0,32.9,29.0,89,63,26,30.21,29.97,6,2,8,0.00
2013-10-8,73.0,57.3,40.0,39.0,32.5,28.0,78,45,20,30.01,29.82,17,5,26,0.00
2013-10-18,52.0,40.2,30.0,31.0,23.4,15.0,82,55,25,30.10,29.85,6,2,9,0.00
2013-10-19,58.0,39.2,24.0,27.0,20.4,-99.9,84,53,26,30.13,29.95,5,2,7,0.00
2013-10-20,59.0,43.5,27.0,31.0,27.1,23.0,84,56,27,29.98,29.85,4,2,7,0.00
2013-10-21,61.0,42.9,29.0,33.0,27.2,21.0,85,58,23,30.15,29.91,5,2,8,0.00
2013-10-22,62.0,45.2,27.0,31.0,27.4,24.0,89,54,26,30.20,30.05,7,2,8,0.00
2013-10-23,65.0,46.4,29.0,32.0,28.9,26.0,88,55,25,30.16,30.01,5,2,6,0.00
2013-10-24,67.0,49.3,32.0,34.0,30.2,27.0,84,51,26,30.15,30.01,5,2,8,0.00
2013-12-4,45.0,18.9,2.0,35.0,15.3,0.0,93,88,54,29.72,29.34,24,5,33,0.01
2013-12-5,17.0,4.4,-4.0,14.0,2.2,-6.0,92,90,87,29.72,29.67,4,2,6,0.19
2013-12-6,16.0,4.4,-2.0,13.0,2.0,-4.0,93,90,79,29.85,29.69,4,2,4,0.04
2013-12-7,26.0,16.2,5.0,22.0,11.3,-99.9,93,87,68,29.80,29.50,5,2,7,0.02
2013-12-8,24.0,15.3,-3.0,22.0,11.7,-5.0,93,86,70,29.77,29.49,10,3,12,0.07
2013-12-9,17.0,3.9,-9.0,7.0,-1.4,-11.0,92,80,47,30.14,29.75,5,2,6,0.01
2013-12-10,17.0,2.3,-9.0,4.0,-3.4,-12.0,92,78,55,30.12,30.03,4,2,6,0.00